• In Latvia
  • List of Countries
  • For 7 days
  • Water Temperature
  • Satellite Maps
  • Weather Map
  • Weather Widgets
  • user-avatar
    Login

    Hourly Weather Salacgriva

    Today, 24 October, Wednesday

    Time Temperature Precipitation Wind Pressure Humidity
    00:00 +5°C° 0.5 mm 6 mps 734 mmHg 92%
    01:00 +4°C° 0.5 mm 6 mps 734 mmHg 92%
    02:00 +4°C° 0.5 mm 7 mps 734 mmHg 92%
    03:00 +4°C° 0.6 mm 7 mps 734 mmHg 91%
    04:00 +4°C° 0.6 mm 7 mps 734 mmHg 91%
    05:00 +4°C° 0.6 mm 8 mps 734 mmHg 90%
    06:00 +4°C° 0.4 mm 8 mps 735 mmHg 89%
    07:00 +3°C° 0.4 mm 9 mps 735 mmHg 88%
    08:00 +3°C° 0.4 mm 9 mps 736 mmHg 86%
    09:00 +3°C° 0.1 mm 9 mps 737 mmHg 84%
    10:00 +3°C° 0.1 mm 9 mps 738 mmHg 82%
    11:00 +3°C° 0.1 mm 9 mps 739 mmHg 80%
    12:00 +5°C° 0.1 mm 9 mps 741 mmHg 78%
    13:00 +5°C° 0.1 mm 8 mps 742 mmHg 77%
    14:00 +5°C° 0.1 mm 8 mps 743 mmHg 75%
    15:00 +4°C° 0.1 mm 8 mps 744 mmHg 75%
    16:00 +4°C° 0.1 mm 8 mps 745 mmHg 75%
    17:00 +4°C° 0.1 mm 8 mps 746 mmHg 75%
    18:00 +3°C° 0 mm 7 mps 747 mmHg 78%
    19:00 +3°C° 0 mm 7 mps 747 mmHg 81%
    20:00 +3°C° 0 mm 7 mps 748 mmHg 84%
    21:00 +3°C° 0 mm 6 mps 748 mmHg 85%
    22:00 +3°C° 0 mm 6 mps 749 mmHg 86%
    23:00 +2°C° 0 mm 5 mps 749 mmHg 86%

    Tomorrow, 25 October, Thursday

    Time Temperature Precipitation Wind Pressure Humidity
    00:00 +2°C° 0 mm 5 mps 749 mmHg 86%
    01:00 +3°C° 0 mm 4 mps 749 mmHg 86%
    02:00 +3°C° 0 mm 4 mps 748 mmHg 86%
    03:00 +3°C° 0.2 mm 4 mps 748 mmHg 86%
    04:00 +3°C° 0.2 mm 4 mps 748 mmHg 85%
    05:00 +3°C° 0.2 mm 4 mps 747 mmHg 85%
    06:00 +3°C° 0.4 mm 4 mps 747 mmHg 85%
    07:00 +3°C° 0.4 mm 4 mps 747 mmHg 85%
    08:00 +3°C° 0.4 mm 4 mps 746 mmHg 84%
    09:00 +4°C° 0.3 mm 3 mps 746 mmHg 80%
    10:00 +5°C° 0.3 mm 3 mps 746 mmHg 76%
    11:00 +7°C° 0.3 mm 2 mps 745 mmHg 72%
    12:00 +7°C° 0.2 mm 2 mps 745 mmHg 71%
    13:00 +7°C° 0.2 mm 3 mps 745 mmHg 70%
    14:00 +7°C° 0.2 mm 3 mps 745 mmHg 68%
    15:00 +5°C° 0.1 mm 3 mps 745 mmHg 72%
    16:00 +5°C° 0.1 mm 3 mps 745 mmHg 75%
    17:00 +4°C° 0.1 mm 3 mps 745 mmHg 78%
    18:00 +4°C° 0.1 mm 3 mps 745 mmHg 80%
    19:00 +4°C° 0.1 mm 3 mps 745 mmHg 81%
    20:00 +3°C° 0.1 mm 3 mps 745 mmHg 82%
    21:00 +3°C° 0.1 mm 3 mps 745 mmHg 82%
    22:00 +3°C° 0.1 mm 4 mps 745 mmHg 82%
    23:00 +3°C° 0.1 mm 4 mps 746 mmHg 82%

    Day after tomorrow, 26 October, Friday

    Time Temperature Precipitation Wind Pressure Humidity
    00:00 +3°C° 0.1 mm 4 mps 746 mmHg 82%
    01:00 +3°C° 0.1 mm 4 mps 746 mmHg 83%
    02:00 +1°C° 0.1 mm 5 mps 746 mmHg 83%
    03:00 +1°C° 0.1 mm 5 mps 746 mmHg 83%
    04:00 +1°C° 0.1 mm 5 mps 746 mmHg 84%
    05:00 +1°C° 0.1 mm 5 mps 746 mmHg 84%
    06:00 +2°C° 0.3 mm 5 mps 746 mmHg 84%
    07:00 +2°C° 0.3 mm 5 mps 746 mmHg 84%
    08:00 +2°C° 0.3 mm 5 mps 746 mmHg 83%
    09:00 +3°C° 0.3 mm 5 mps 747 mmHg 80%
    10:00 +5°C° 0.3 mm 5 mps 747 mmHg 76%
    11:00 +6°C° 0.3 mm 5 mps 747 mmHg 73%
    12:00 +6°C° 0.3 mm 5 mps 747 mmHg 72%
    13:00 +6°C° 0.3 mm 5 mps 747 mmHg 71%
    14:00 +6°C° 0.3 mm 5 mps 747 mmHg 70%
    15:00 +5°C° 0.1 mm 5 mps 747 mmHg 73%
    16:00 +5°C° 0.1 mm 4 mps 747 mmHg 77%
    17:00 +4°C° 0.1 mm 4 mps 747 mmHg 80%
    18:00 +3°C° 0 mm 3 mps 747 mmHg 81%
    19:00 +4°C° 0 mm 2 mps 747 mmHg 82%
    20:00 +5°C° 0 mm 1 mps 747 mmHg 83%
    21:00 +5°C° 0 mm 1 mps 746 mmHg 85%
    22:00 +3°C° 0 mm 2 mps 746 mmHg 86%
    23:00 +3°C° 0 mm 2 mps 745 mmHg 87%

    27 October, Saturday

    Time Temperature Precipitation Wind Pressure Humidity
    00:00 +2°C° 0.3 mm 3 mps 745 mmHg 87%
    01:00 +1°C° 0.3 mm 4 mps 744 mmHg 87%
    02:00 +1°C° 0.3 mm 5 mps 743 mmHg 87%
    03:00 +1°C° 0.4 mm 5 mps 743 mmHg 87%
    04:00 +1°C° 0.4 mm 6 mps 743 mmHg 87%
    05:00 0°C° 0.4 mm 7 mps 742 mmHg 86%
    06:00 0°C° 0.2 mm 7 mps 743 mmHg 86%
    07:00 0°C° 0.2 mm 7 mps 743 mmHg 86%
    08:00 0°C° 0.2 mm 7 mps 743 mmHg 86%
    09:00 +1°C° 0 mm 6 mps 745 mmHg 83%
    10:00 +2°C° 0 mm 6 mps 746 mmHg 80%
    11:00 +2°C° 0 mm 6 mps 747 mmHg 77%
    12:00 +2°C° 0 mm 6 mps 748 mmHg 74%
    13:00 +2°C° 0 mm 6 mps 749 mmHg 71%
    14:00 +2°C° 0 mm 6 mps 750 mmHg 68%
    15:00 +2°C° 0 mm 6 mps 750 mmHg 69%
    16:00 +1°C° 0 mm 5 mps 751 mmHg 71%
    17:00 +1°C° 0 mm 5 mps 752 mmHg 72%
    18:00 0°C° 0 mm 4 mps 752 mmHg 74%
    19:00 0°C° 0 mm 4 mps 753 mmHg 75%
    20:00 +1°C° 0 mm 3 mps 754 mmHg 76%
    21:00 +1°C° 0 mm 3 mps 754 mmHg 78%
    22:00 0°C° 0 mm 3 mps 755 mmHg 79%
    23:00 0°C° 0 mm 3 mps 756 mmHg 80%

    28 October, Sunday

    Time Temperature Precipitation Wind Pressure Humidity
    00:00 0°C° 0.1 mm 3 mps 757 mmHg 80%
    01:00 0°C° 0.1 mm 3 mps 757 mmHg 81%
    02:00 0°C° 0.1 mm 3 mps 758 mmHg 81%
    03:00 0°C° 0 mm 3 mps 758 mmHg 82%
    04:00 0°C° 0 mm 3 mps 759 mmHg 82%
    05:00 0°C° 0 mm 3 mps 759 mmHg 82%
    06:00 0°C° 0 mm 3 mps 760 mmHg 82%
    07:00 0°C° 0 mm 3 mps 761 mmHg 82%
    08:00 -1°C° 0 mm 3 mps 761 mmHg 81%
    09:00 0°C° 0 mm 3 mps 762 mmHg 74%
    10:00 +1°C° 0 mm 3 mps 763 mmHg 68%
    11:00 +2°C° 0 mm 3 mps 764 mmHg 61%
    12:00 +2°C° 0 mm 3 mps 764 mmHg 59%
    13:00 +2°C° 0 mm 3 mps 765 mmHg 58%
    14:00 +3°C° 0 mm 3 mps 765 mmHg 56%
    15:00 +2°C° 0 mm 3 mps 766 mmHg 60%
    16:00 +1°C° 0 mm 3 mps 766 mmHg 65%
    17:00 +1°C° 0 mm 2 mps 767 mmHg 69%
    18:00 +1°C° 0 mm 2 mps 767 mmHg 71%
    19:00 -1°C° 0 mm 2 mps 768 mmHg 72%
    20:00 +1°C° 0 mm 1 mps 768 mmHg 74%
    21:00 +1°C° 0 mm 1 mps 768 mmHg 74%
    22:00 -1°C° 0 mm 2 mps 769 mmHg 74%
    23:00 -2°C° 0 mm 2 mps 769 mmHg 75%

    29 October, Monday

    Time Temperature Precipitation Wind Pressure Humidity
    00:00 -2°C° 0 mm 2 mps 769 mmHg 74%
    01:00 -2°C° 0 mm 2 mps 769 mmHg 73%
    02:00 -2°C° 0 mm 2 mps 769 mmHg 73%
    03:00 -2°C° 0 mm 3 mps 769 mmHg 72%
    04:00 -2°C° 0 mm 3 mps 769 mmHg 72%
    05:00 -2°C° 0 mm 3 mps 769 mmHg 71%
    06:00 -2°C° 0 mm 3 mps 769 mmHg 71%
    07:00 -2°C° 0 mm 2 mps 769 mmHg 70%
    08:00 -2°C° 0 mm 2 mps 769 mmHg 69%
    09:00 +1°C° 0 mm 2 mps 769 mmHg 64%
    10:00 +2°C° 0 mm 2 mps 769 mmHg 59%
    11:00 +3°C° 0 mm 2 mps 769 mmHg 54%
    12:00 +3°C° 0 mm 2 mps 769 mmHg 53%
    13:00 +4°C° 0 mm 2 mps 769 mmHg 52%
    14:00 +4°C° 0 mm 2 mps 769 mmHg 50%
    15:00 +3°C° 0 mm 2 mps 769 mmHg 55%
    16:00 +2°C° 0 mm 2 mps 769 mmHg 61%
    17:00 +2°C° 0 mm 1 mps 768 mmHg 66%
    18:00 +2°C° 0 mm 1 mps 769 mmHg 68%
    19:00 -1°C° 0 mm 2 mps 769 mmHg 71%
    20:00 -1°C° 0 mm 2 mps 769 mmHg 74%
    21:00 -1°C° 0 mm 2 mps 769 mmHg 75%
    22:00 -2°C° 0 mm 2 mps 769 mmHg 76%
    23:00 -2°C° 0 mm 2 mps 770 mmHg 77%

    30 October, Tuesday

    Time Temperature Precipitation Wind Pressure Humidity
    00:00 -2°C° 0 mm 2 mps 770 mmHg 76%
    01:00 -1°C° 0 mm 2 mps 770 mmHg 74%
    02:00 -1°C° 0 mm 2 mps 770 mmHg 73%
    03:00 -1°C° 0 mm 3 mps 770 mmHg 73%
    04:00 -1°C° 0 mm 3 mps 770 mmHg 73%
    05:00 -2°C° 0 mm 4 mps 770 mmHg 73%
    06:00 -2°C° 0 mm 4 mps 771 mmHg 73%
    07:00 -2°C° 0 mm 4 mps 771 mmHg 74%
    08:00 -2°C° 0 mm 4 mps 772 mmHg 75%
    09:00 -2°C° 0 mm 4 mps 772 mmHg 70%
    10:00 -1°C° 0 mm 5 mps 773 mmHg 65%
    11:00 -1°C° 0 mm 5 mps 773 mmHg 60%
    12:00 0°C° 0 mm 5 mps 773 mmHg 60%
    13:00 -1°C° 0 mm 6 mps 774 mmHg 59%
    14:00 -1°C° 0 mm 6 mps 774 mmHg 59%
    15:00 -2°C° 0 mm 6 mps 774 mmHg 64%
    16:00 -2°C° 0 mm 6 mps 774 mmHg 69%
    17:00 -3°C° 0 mm 6 mps 775 mmHg 74%
    18:00 -3°C° 0 mm 6 mps 775 mmHg 72%
    19:00 -4°C° 0 mm 6 mps 775 mmHg 71%
    20:00 -4°C° 0 mm 7 mps 776 mmHg 70%
    21:00 -4°C° 0 mm 7 mps 776 mmHg 66%
    22:00 -4°C° 0 mm 7 mps 776 mmHg 62%
    23:00 -4°C° 0 mm 7 mps 776 mmHg 58%
    Show more